Location: İstanbul
(41.0082°N, 28.9784°E)
Time: 08:11:47
(UTC+03:00)

DOVE 4 - Pass Details

Date: 29 April 2024
Orbit: 582 x 778 km, 97.7° (Epoch: 27 May)

Event Time Altitude Azimuth Distance (km) Brightness Sun altitude
Rises 22:41:46 0° 12° (NNE) 2,955 ? -25.5°
Reaches altitude 10° 22:43:56 10° 13° (NNE) 2,070 ? -25.8°
Enters shadow 22:47:55 69° 23° (NNE) 728 ? -26.2°
